Hourly Data Report for October 01, 2017

All times are specified in Local Standard Time (LST). Add 1 hour to adjust for Daylight Saving Time where and when it is observed.

SATURNA ISLAND CS
BRITISH COLUMBIA

48°47'02.067" N
123°02'41.082" W
24.40 m
1017101
71473
WEZ

Download Data

Hourly Data (October 2017)
Hourly Data Report for October 1, 2017
Temp Definition
°C
Dew Point Temp Definition
°C
Rel Hum Definition
%
Wind Dir Definition
10's deg

Wind Spd Definition
km/h
Visibility Definition
km
Stn Press Definition
kPa
Hmdx Definition


Wind Chill Definition


Weather Definition


TIME
00:00 10.2 9.2 94 27 2   101.56     LegendNANA
01:00 10.3 9.3 94 25 6   101.58     LegendNANA
02:00 10.6 9.4 93 24 7   101.56     LegendNANA
03:00 10.7 9.5 92 24 6   101.58     LegendNANA
04:00 10.7 9.4 92 23 6   101.60     LegendNANA
05:00 10.5 9.0 91 29 4   101.61     LegendNANA
06:00 10.8 9.1 90 24 3   101.63     LegendNANA
07:00 11.3 9.4 88 30 5   101.67     LegendNANA
08:00 11.6 9.6 87 32 6   101.68     LegendNANA
09:00 11.7 9.7 87 34 4   101.72     LegendNANA
10:00 13.0 9.6 80 29 8   101.71     LegendNANA
11:00 13.3 9.7 79 30 7   101.72     LegendNANA
12:00 13.0 9.2 78 30 9   101.73     LegendNANA
13:00 14.9 8.9 67 29 6   101.75     LegendNANA
14:00 14.7 9.0 69 27 4   101.71     LegendNANA
15:00 14.0 8.4 69 32 9   101.72     LegendNANA
16:00 12.9 8.5 75 32 9   101.71     LegendNANA
17:00 12.8 8.9 77 29 5   101.70     LegendNANA
18:00 12.3 8.8 79 28 3   101.72     LegendNANA
19:00 11.9 7.8 76 22 6   101.73     LegendNANA
20:00 11.8 7.8 76 22 14   101.75     LegendNANA
21:00 11.3 7.8 79 23 11   101.73     LegendNANA
22:00 10.7 8.1 84 21 16   101.72     LegendNANA
23:00 10.7 8.1 84 22 15   101.73     LegendNANA

Notes on Data Quality.

Legend

  • E = Estimated
  • M = Missing
  • NA = Not Available
  • ‡ = Partner data that is not subject to review by the National Climate Archives
Date modified: